Weather Roundup
Issued by NWS Springfield, MO

Home | Current Version | Previous Version | Text Only | Print | Product List | Glossary On
Versions: 1 2 3 4 5 6 7 8 9 10 11 12 13 14 15 16 17 18 19 20 21 22 23 24 25 26 27 28 29 30 31 32 33 34 35 36 37 38 39 40 41 42 43 44 45 46 47 48 49 50
092
NZUS99 KSGF 070207
HRRSGF

HOURLY WEATHER
NATIONAL WEATHER SERVICE SPRINGFIELD MO
800 PM CST SAT FEB 06 2016

......SGF CWA......

CITY           SKY/WX    TMP DP  RH WIND       PRES   REMARKS
SPRINGFIELD    CLEAR     37  25  61 SW7       30.21F WCI  32
JOPLIN         CLEAR     39  28  64 S7        30.23F WCI  34
WEST PLAINS    CLEAR     42  16  34 S5        30.24F
ROLLA          CLEAR     38  26  62 SW7       30.18F WCI  33
OSAGE BEACH    CLEAR     43  27  52 SW6       30.20F
BRANSON        PTCLDY    45  23  42 CALM      30.25S

......SURROUNDING SGF CWA......

CITY           SKY/WX    TMP DP  RH WIND       PRES   REMARKS
CHANUTE        CLEAR     36  26  67 SW9       30.21F WCI  29
PARSONS        CLEAR     39  26  59 SW5       30.24S
COFFEYVILLE    PTCLDY    42  27  55 SW7       30.24F
EMPORIA        CLEAR     34  26  72 S13       30.15F WCI  25
GROVE OK       CLEAR     41  32  70 CALM      30.26F
ROGERS AR      CLEAR     44  27  51 SW6       30.25F
SILOAM SPRINGS CLEAR     43  25  49 SW5       30.26F
HARRISON AR    CLEAR     43  23  45 SW3       30.25S
NEAR YELLVILLE CLEAR     39  19  45 SW3       30.24S

......KANSAS AND MISSOURI......

CITY           SKY/WX    TMP DP  RH WIND       PRES   REMARKS
KANSAS CTY INT CLOUDY    40  29  64 SW12      30.12F WCI  33
DOWNTOWN KC    CLOUDY    44  29  55 S10       30.13F
COLUMBIA       CLEAR     40  26  57 SW8       30.17F WCI  34
SEDALIA        CLEAR     41  27  57 SW8       30.19F
ST JOSEPH      CLOUDY    36  28  73 S7        30.11F WCI  30
ST LOUIS       PTCLDY    45  26  47 SW5       30.19F
SPIRIT OF STL  CLEAR     37  29  72 CALM      30.19S
KIRKSVILLE     CLEAR     36  28  73 S6        30.13F WCI  31
WICHITA        CLOUDY    37  27  67 S13       30.17F WCI  29
TOPEKA         PTCLDY    43  27  53 SW9       30.14F
OLATHE         CLOUDY    37  27  67 S5        30.14F WCI  33

......TENNESSEE......

CITY           SKY/WX    TMP DP  RH WIND       PRES   REMARKS
MEMPHIS        PTCLDY    44  23  43 CALM      30.31S
NASHVILLE      PTCLDY    39  22  50 S3        30.30S

......ARKANSAS.......

CITY           SKY/WX    TMP DP  RH WIND       PRES   REMARKS
FAYETTEVILLE   CLEAR     35  26  69 CALM      30.27R
FT SMITH       CLEAR     40  23  50 CALM      30.29S
LITTLE ROCK    CLEAR     43  23  45 S3        30.31R

......OKLAHOMA.......

CITY           SKY/WX    TMP DP  RH WIND       PRES   REMARKS
TULSA          PTCLDY    48  28  46 SW5       30.25F
PONCA CITY     CLOUDY    41  26  55 S6        30.23F
MCALESTER      PTCLDY    38  29  70 CALM      30.30S
OKLAHOMA CITY  CLOUDY    38  27  64 S7        30.26F WCI  33

......IOWA............

CITY           SKY/WX    TMP DP  RH WIND       PRES   REMARKS
DES MOINES     CLOUDY    36  30  79 S9        30.02F WCI  29
QUAD CITIES    CLEAR     28  25  88 CALM      30.10F

......ILLINOIS........

CITY           SKY/WX    TMP DP  RH WIND       PRES   REMARKS
QUINCY         CLEAR     37  25  61 SW5       30.14F WCI  33
CHICAGO        CLEAR     33  27  78 S7        30.11F WCI  27




USA.gov is the U.S. government's official web portal to all federal, state and local government web resources and services.